Location: Bas-Clignon
(44.2000°N, 6.6333°E)
Time: 13:46:48
(UTC+00:00)

Cosmos 468 Rocket - Visible Passes

Search period start: 25 September 2023 00:00
Search period end: 05 October 2023 00:00
Orbit: 744 x 777 km, 74.0° (Epoch: 24 September)

Date Brightness Start Highest point End Pass type
(mag) Time Alt. Az. Time Alt. Az. Time Alt. Az.
25 Sep 6.3 20:25:22 10° N 20:26:26 13° NNE 20:26:26 13° NNE visible
25 Sep 6.9 22:06:08 10° NNW 22:06:32 12° NNW 22:06:32 12° NNW visible
26 Sep 6.4 19:47:35 10° NNE 19:47:45 10° NNE 19:47:45 10° NNE visible
26 Sep 6.5 21:26:49 10° NNW 21:27:51 16° NNW 21:27:51 16° NNW visible
27 Sep 6.2 20:47:41 10° N 20:49:12 18° N 20:49:12 18° N visible
28 Sep 6.0 20:08:48 10° N 20:10:33 17° NNE 20:10:33 17° NNE visible
28 Sep 6.8 21:50:08 10° NNW 21:50:39 13° NNW 21:50:39 13° NNW visible
29 Sep 6.1 19:30:19 10° NNE 19:31:56 14° NNE 19:31:56 14° NNE visible
29 Sep 6.4 21:10:41 10° NNW 21:12:02 18° NNW 21:12:02 18° NNW visible
30 Sep 5.9 20:31:26 10° NNW 20:33:26 23° N 20:33:26 23° N visible
01 Oct 5.6 19:52:23 10° N 19:54:52 23° NNE 19:54:52 23° NNE visible
01 Oct 6.8 21:34:14 10° NW 21:34:58 14° NW 21:34:58 14° NW visible
02 Oct 5.7 19:13:36 10° N 19:16:20 19° NE 19:16:20 19° NE visible
02 Oct 6.2 20:54:37 10° NNW 20:56:26 22° NNW 20:56:26 22° NNW visible
03 Oct 5.9 18:35:24 10° NNE 18:37:39 13° NE 18:37:49 13° NE visible
03 Oct 5.5 20:15:14 10° NNW 20:17:56 31° NNW 20:17:56 31° NNW visible
04 Oct 5.0 19:36:03 10° N 19:39:28 34° NNE 19:39:28 34° NNE visible
04 Oct 6.7 21:18:30 10° NW 21:19:34 15° NW 21:19:34 15° NW visible
